Location: Faicchio
(41.2833°N, 14.4833°E)
Time: 07:12:06
(UTC+00:00)

Cosmos 1777 Rocket - Pass Details

Date: 15 June 2025
Orbit: 755 x 771 km, 74.0° (Epoch: 16 July)

Event Time Altitude Azimuth Distance (km) Brightness Sun altitude
Exits shadow 01:57:20 18° 198° (SSW) 1,832 5.4 -13.8°
Maximum altitude 02:01:21 90° 116° (ESE) 774 4.0 -13.3°
Drops below altitude 10° 02:06:37 10° 20° (NNE) 2,313 7.6 -12.6°
Sets 02:09:00 0° 20° (NNE) 3,241 8.6 -12.3°
